User: anonymous   Login
Location: Delta State University
(33.7460°N, 90.7320°W)
Time: 05:06:02
(UTC-05:00)
Language:

Iridium 13 - Orbit

View from above orbital plane
View from above orbital plane
View from above satellite
View from above satellite

Ground track
Ground track

The orbit data is extracted from the following two-line orbital elements,

1 24840U 97030E   16206.39776820  .00000201  00000-0  64559-4 0  9990
2 24840  86.3991 127.2632 0002250  88.5303 271.6150 14.34215592999965
Epoch (UTC): 24 July 2016 09:32:47
Eccentricity: 0.0002250
inclination: 86.3991°
perigee height: 776 km
apogee height: 779 km
right ascension of ascending node: 127.2632°
argument of perigee: 88.5303°
revolutions per day: 14.34215592
mean anomaly at epoch: 271.6150°
orbit number at epoch: 99996

The dashed part of the orbit path shows where the satellite is in the earth's shadow,  

DLR